BEIDOU-3 M17 (C36)

Last updated on Mon Oct 20 2025 00:03:25 GMT+0000 (Coordinated Universal Time)

1 43706U 18093A 25291.95878498 -.00000005 00000+0 00000+0 0 9992 2 43706 54.1743 190.4817 0007762 300.2961 246.6825 1.86228388 47043
UTC large
Height (km)
Speed (km/s)
/
Latitude / Longitude
Inclination (degrees)
Orbital Period (minutes)
Azimuth
Elevation
Range (km)
Doppler Factor

Next 0 passes for location: London (51.5072 / 0.1276)

Sorry there are no passes over London.